Location: Ponte Samoggia
(44.5667°N, 11.1333°E)
Time: 17:40:48
(UTC+00:00)

Cosmos 1610 Rocket - Pass Details

Date: 26 May 2022
Orbit: 952 x 1003 km, 82.9° (Epoch: 06 July)

Event Time Altitude Azimuth Distance (km) Brightness Sun altitude
Rises 01:39:37 0° 350° (N) 3,656 8.2 -16.2°
Reaches altitude 10° 01:42:08 10° 350° (N) 2,700 7.4 -16.0°
Maximum altitude 01:48:18 81° 265° (W) 970 4.4 -15.3°
Enters shadow 01:54:08 11° 178° (S) 2,571 6.3 -14.7°
